Morrisville, VT

6:37 AM EST on November 20, 2019 (GMT -0500)
Morrisville Stowe State

Weather History for KMVL - September, 2019

Change the Weather History Date:

Wednesday, September 11, 2019

  Actual Average Record
Temperature  
Mean Temperature 70 °F 60 °F  
Max Temperature 78 °F 72 °F 90 °F (2013)
Min Temperature 60 °F 48 °F 33 °F (2006)
Degree Days  
Heating Degree Days 0 6  
Month to date heating degree days 54  
Since 1 July heating degree days 149  
Cooling Degree Days 4 1  
Month to date cooling degree days 11  
Year to date cooling degree days 258  
Growing Degree Days 20 (Base 50)    
Moisture  
Dew Point 63 °F    
Average Humidity 81    
Maximum Humidity 96    
Minimum Humidity 64    
Precipitation  
Precipitation 0.07 in 0.12 in 1.31 in (2002)
Month to date precipitation 1.09  
Year to date precipitation 24.85  
Sea Level Pressure  
Sea Level Pressure 30.04 in    
Wind  
Wind Speed 5 mph ()    
Max Wind Speed 12 mph    
Max Gust Speed 20 mph    
Visibility 9.9 miles    
Events Rain    
T = Trace of Precipitation, MM = Missing Value Source: Averaged Metar Reports

Daily Weather History Graph

Daily Weather History Graph

Search for Another Location

Airport or City:

Astronomy

Sep. 11, 2019 Rise Set
Actual Time 6:24 AM EDT 7:09 PM EDT
Civil Twilight 5:54 AM EDT 7:38 PM EDT
Nautical Twilight 5:19 AM EDT 8:13 PM EDT
Astronomical Twilight 4:43 AM EDT 8:49 PM EDT
Moon 6:27 PM EDT (9/11) 3:35 AM EDT (9/11)
Length of Visible Light 13h 43m
Length of Day
12h 44m
Waxing Gibbous, 94% of the Moon is Illuminated
Sep 11
Waxing Gibbous
Sep 14
Full
Sep 21
Last Quarter
Sep 28
New
Oct 5
First Quarter

Hourly Weather History & Observations

Time (EDT) Temp. Dew Point Humidity Pressure Visibility Wind Dir Wind Speed Gust Speed Precip Events Conditions
12:54 AM 66.0 °F 63.0 °F 90% 30.09 in 10.0 mi South 4.6 mph - 0.00 in   Mostly Cloudy
1:54 AM 64.9 °F 63.0 °F 93% 30.07 in 10.0 mi South 4.6 mph - N/A   Partly Cloudy
2:54 AM 66.0 °F 63.0 °F 90% 30.05 in 10.0 mi South 5.8 mph - N/A   Clear
3:54 AM 64.0 °F 62.1 °F 93% 30.05 in 10.0 mi Calm Calm - N/A   Clear
4:54 AM 64.0 °F 63.0 °F 96% 30.05 in 8.0 mi Calm Calm - 0.03 in Rain Light Rain
5:54 AM 66.9 °F 64.0 °F 90% 30.05 in 10.0 mi SW 5.8 mph - 0.01 in   Overcast
6:54 AM 66.9 °F 64.0 °F 90% 30.04 in 10.0 mi SSW 3.5 mph - N/A   Mostly Cloudy
7:54 AM 69.1 °F 64.0 °F 84% 30.04 in 10.0 mi SSW 6.9 mph - N/A   Scattered Clouds
8:54 AM 71.1 °F 64.9 °F 81% 30.04 in 10.0 mi SW 6.9 mph - N/A   Overcast
9:29 AM 70.0 °F 64.9 °F 84% 30.04 in 10.0 mi SW 6.9 mph - N/A   Overcast
9:41 AM 70.0 °F 66.0 °F 87% 30.04 in 10.0 mi SW 6.9 mph - 0.00 in Rain Light Rain
9:54 AM 70.0 °F 64.9 °F 84% 30.04 in 10.0 mi SW 5.8 mph - 0.00 in Rain Light Rain
10:54 AM 73.9 °F 66.0 °F 76% 30.02 in 10.0 mi Variable 6.9 mph 18.4 mph 0.00 in   Mostly Cloudy
11:54 AM 75.9 °F 66.0 °F 71% 30.01 in 10.0 mi WSW 9.2 mph 17.3 mph N/A   Scattered Clouds
12:54 PM 78.1 °F 66.0 °F 66% 30.00 in 10.0 mi SW 9.2 mph - N/A   Mostly Cloudy
1:54 PM 77.0 °F 66.0 °F 69% 30.00 in 10.0 mi North 8.1 mph - 0.00 in   Overcast
2:54 PM 75.9 °F 66.9 °F 74% 30.01 in 10.0 mi NNW 6.9 mph - 0.02 in   Partly Cloudy
3:54 PM 75.9 °F 63.0 °F 64% 30.00 in 10.0 mi Variable 4.6 mph - N/A   Mostly Cloudy
4:54 PM 73.9 °F 64.9 °F 73% 30.02 in 10.0 mi NW 4.6 mph - N/A   Overcast
5:54 PM 73.9 °F 64.0 °F 71% 30.00 in 10.0 mi NNW 6.9 mph - N/A   Partly Cloudy
6:54 PM 71.1 °F 63.0 °F 75% 30.00 in 10.0 mi WNW 3.5 mph - N/A   Mostly Cloudy
7:54 PM 69.1 °F 62.1 °F 78% 30.03 in 10.0 mi NW 11.5 mph 19.6 mph 0.01 in   Mostly Cloudy
8:54 PM 66.0 °F 59.0 °F 78% 30.07 in 10.0 mi NNW 3.5 mph - N/A   Partly Cloudy
9:54 PM 63.0 °F 57.0 °F 81% 30.09 in 10.0 mi NNW 9.2 mph - N/A   Partly Cloudy
10:25 PM 62.1 °F 55.9 °F 80% 30.10 in 10.0 mi North 8.1 mph - N/A   Mostly Cloudy
10:54 PM 61.0 °F 55.0 °F 81% 30.10 in 10.0 mi North 6.9 mph - N/A   Overcast
11:54 PM 60.1 °F 53.1 °F 78% 30.12 in 10.0 mi North 9.2 mph - N/A   Overcast